EN

Hourly Weather Burkut

Today, 15 April, Thursday

Time Temperature Precipitation Wind Pressure Humidity
00:00 -1°C° 0.3 mm 0 mps 670 mmHg 97%
01:00 -2°C° 0.3 mm 0 mps 670 mmHg 97%
02:00 -1°C° 0 mm 1 mps 670 mmHg 97%
03:00 -1°C° 0.2 mm 1 mps 670 mmHg 97%
04:00 -1°C° 0.2 mm 1 mps 670 mmHg 98%
05:00 -1°C° 0.2 mm 1 mps 670 mmHg 98%
06:00 -1°C° 0.2 mm 1 mps 671 mmHg 96%
07:00 0°C° 0.2 mm 1 mps 671 mmHg 95%
08:00 0°C° 0.2 mm 1 mps 671 mmHg 93%
09:00 +1°C° 0.2 mm 1 mps 671 mmHg 91%
10:00 +1°C° 0.2 mm 1 mps 671 mmHg 90%
11:00 +2°C° 0.2 mm 1 mps 671 mmHg 88%
12:00 +2°C° 0.2 mm 1 mps 671 mmHg 89%
13:00 +2°C° 0.2 mm 1 mps 671 mmHg 90%
14:00 +2°C° 0.2 mm 1 mps 672 mmHg 90%
15:00 +2°C° 0.4 mm 1 mps 672 mmHg 92%
16:00 +1°C° 0.4 mm 1 mps 672 mmHg 93%
17:00 +1°C° 0.4 mm 1 mps 672 mmHg 95%
18:00 0°C° 0.3 mm 1 mps 672 mmHg 96%
19:00 0°C° 0.3 mm 1 mps 672 mmHg 97%
20:00 -1°C° 0.3 mm 1 mps 672 mmHg 98%
21:00 -1°C° 0.1 mm 1 mps 672 mmHg 98%
22:00 -2°C° 0.1 mm 1 mps 672 mmHg 97%
23:00 -2°C° 0.1 mm 1 mps 672 mmHg 97%

Tomorrow, 16 April, Friday

Time Temperature Precipitation Wind Pressure Humidity
00:00 -2°C° 0.1 mm 1 mps 671 mmHg 97%
01:00 -2°C° 0.1 mm 1 mps 671 mmHg 96%
02:00 -2°C° 0.1 mm 1 mps 671 mmHg 96%
03:00 -2°C° 0.1 mm 1 mps 671 mmHg 96%
04:00 -3°C° 0.1 mm 1 mps 671 mmHg 96%
05:00 -3°C° 0.1 mm 1 mps 671 mmHg 96%
06:00 -2°C° 0.1 mm 1 mps 671 mmHg 93%
07:00 -1°C° 0.1 mm 1 mps 671 mmHg 90%
08:00 -2°C° 0.1 mm 2 mps 671 mmHg 87%
09:00 -1°C° 0.1 mm 2 mps 672 mmHg 84%
10:00 -1°C° 0.1 mm 3 mps 672 mmHg 81%
11:00 0°C° 0.1 mm 3 mps 672 mmHg 78%
12:00 +1°C° 0.1 mm 3 mps 672 mmHg 77%
13:00 +1°C° 0.1 mm 3 mps 672 mmHg 76%
14:00 +1°C° 0.1 mm 3 mps 673 mmHg 75%
15:00 +1°C° 0.1 mm 3 mps 673 mmHg 76%
16:00 +1°C° 0.1 mm 3 mps 673 mmHg 77%
17:00 0°C° 0.1 mm 3 mps 673 mmHg 78%
18:00 -1°C° 0 mm 2 mps 673 mmHg 84%
19:00 -2°C° 0 mm 2 mps 673 mmHg 90%
20:00 -2°C° 0 mm 1 mps 673 mmHg 96%
21:00 -2°C° 0 mm 1 mps 673 mmHg 96%
22:00 -2°C° 0 mm 1 mps 673 mmHg 96%
23:00 -3°C° 0 mm 1 mps 674 mmHg 96%

Day after tomorrow, 17 April, Saturday

Time Temperature Precipitation Wind Pressure Humidity
00:00 -3°C° 0 mm 1 mps 674 mmHg 96%
01:00 -3°C° 0 mm 1 mps 673 mmHg 96%
02:00 -3°C° 0 mm 1 mps 673 mmHg 96%
03:00 -3°C° 0 mm 1 mps 673 mmHg 96%
04:00 -3°C° 0 mm 1 mps 673 mmHg 97%
05:00 -3°C° 0 mm 1 mps 673 mmHg 97%
06:00 -2°C° 0 mm 1 mps 674 mmHg 91%
07:00 -1°C° 0 mm 0 mps 674 mmHg 85%
08:00 +1°C° 0 mm 0 mps 674 mmHg 78%
09:00 +3°C° 0 mm 0 mps 674 mmHg 74%
10:00 +5°C° 0 mm 0 mps 674 mmHg 70%
11:00 +7°C° 0 mm 1 mps 674 mmHg 65%
12:00 +8°C° 0 mm 1 mps 674 mmHg 66%
13:00 +8°C° 0 mm 1 mps 673 mmHg 66%
14:00 +7°C° 0 mm 2 mps 673 mmHg 66%
15:00 +6°C° 0.1 mm 2 mps 673 mmHg 71%
16:00 +6°C° 0.1 mm 2 mps 673 mmHg 76%
17:00 +5°C° 0.1 mm 2 mps 673 mmHg 81%
18:00 +4°C° 0 mm 2 mps 673 mmHg 85%
19:00 +4°C° 0 mm 1 mps 673 mmHg 90%
20:00 +3°C° 0 mm 1 mps 673 mmHg 95%
21:00 +2°C° 0 mm 1 mps 673 mmHg 95%
22:00 +2°C° 0 mm 1 mps 673 mmHg 96%
23:00 +1°C° 0 mm 1 mps 673 mmHg 97%

18 April, Sunday

Time Temperature Precipitation Wind Pressure Humidity
00:00 +1°C° 0 mm 1 mps 673 mmHg 96%
01:00 +1°C° 0 mm 1 mps 673 mmHg 96%
02:00 +1°C° 0 mm 1 mps 673 mmHg 96%
03:00 +1°C° 0 mm 1 mps 673 mmHg 96%
04:00 +1°C° 0 mm 1 mps 673 mmHg 96%
05:00 +1°C° 0 mm 1 mps 673 mmHg 96%
06:00 +2°C° 0 mm 1 mps 673 mmHg 91%
07:00 +3°C° 0 mm 1 mps 673 mmHg 86%
08:00 +4°C° 0 mm 1 mps 673 mmHg 81%
09:00 +4°C° 0 mm 2 mps 673 mmHg 78%
10:00 +5°C° 0 mm 2 mps 673 mmHg 74%
11:00 +4°C° 0 mm 3 mps 673 mmHg 70%
12:00 +4°C° 0.1 mm 3 mps 673 mmHg 72%
13:00 +4°C° 0.1 mm 3 mps 673 mmHg 74%
14:00 +4°C° 0.1 mm 3 mps 673 mmHg 76%
15:00 +4°C° 0.1 mm 3 mps 672 mmHg 79%
16:00 +4°C° 0.1 mm 2 mps 672 mmHg 83%
17:00 +4°C° 0.1 mm 2 mps 672 mmHg 86%
18:00 +3°C° 0.3 mm 2 mps 672 mmHg 90%
19:00 +4°C° 0.3 mm 1 mps 672 mmHg 94%
20:00 +3°C° 0.3 mm 1 mps 672 mmHg 98%
21:00 +3°C° 0.8 mm 1 mps 672 mmHg 98%
22:00 +3°C° 0.8 mm 1 mps 672 mmHg 98%
23:00 +2°C° 0.8 mm 1 mps 672 mmHg 98%

19 April, Monday

Time Temperature Precipitation Wind Pressure Humidity
00:00 +2°C° 0.3 mm 1 mps 672 mmHg 98%
01:00 +2°C° 0.3 mm 1 mps 672 mmHg 98%
02:00 +2°C° 0.3 mm 1 mps 672 mmHg 98%
03:00 +2°C° 0.2 mm 1 mps 671 mmHg 98%
04:00 +2°C° 0.2 mm 1 mps 671 mmHg 98%
05:00 +3°C° 0.2 mm 1 mps 671 mmHg 98%
06:00 +3°C° 0.2 mm 1 mps 671 mmHg 98%
07:00 +3°C° 0.2 mm 1 mps 671 mmHg 98%
08:00 +3°C° 0.2 mm 1 mps 671 mmHg 98%
09:00 +3°C° 0.2 mm 1 mps 671 mmHg 98%
10:00 +3°C° 0.2 mm 1 mps 671 mmHg 98%
11:00 +3°C° 0.2 mm 1 mps 671 mmHg 98%
12:00 +4°C° 0.1 mm 1 mps 670 mmHg 97%
13:00 +4°C° 0.1 mm 1 mps 670 mmHg 97%
14:00 +4°C° 0.1 mm 1 mps 670 mmHg 96%
15:00 +3°C° 0.1 mm 2 mps 670 mmHg 96%
16:00 +3°C° 0.1 mm 2 mps 669 mmHg 97%
17:00 +3°C° 0.1 mm 2 mps 669 mmHg 97%
18:00 +3°C° 0.4 mm 2 mps 669 mmHg 97%
19:00 +3°C° 0.4 mm 2 mps 669 mmHg 98%
20:00 +2°C° 0.4 mm 2 mps 668 mmHg 98%
21:00 +3°C° 0.3 mm 2 mps 668 mmHg 98%
22:00 +3°C° 0.3 mm 2 mps 668 mmHg 98%
23:00 +2°C° 0.3 mm 3 mps 667 mmHg 98%

20 April, Tuesday

Time Temperature Precipitation Wind Pressure Humidity
00:00 +1°C° 0.5 mm 3 mps 667 mmHg 98%
01:00 +1°C° 0.5 mm 3 mps 666 mmHg 97%
02:00 +1°C° 0.5 mm 3 mps 666 mmHg 97%
03:00 +1°C° 0.6 mm 3 mps 666 mmHg 97%
04:00 +1°C° 0.6 mm 3 mps 666 mmHg 97%
05:00 0°C° 0.6 mm 3 mps 665 mmHg 97%
06:00 0°C° 1.4 mm 3 mps 665 mmHg 97%
07:00 0°C° 1.4 mm 3 mps 665 mmHg 98%
08:00 0°C° 1.4 mm 3 mps 665 mmHg 98%
09:00 0°C° 1.9 mm 3 mps 665 mmHg 98%
10:00 0°C° 1.9 mm 3 mps 666 mmHg 98%
11:00 0°C° 1.9 mm 3 mps 666 mmHg 98%
12:00 0°C° 1.2 mm 3 mps 666 mmHg 98%
13:00 +1°C° 1.2 mm 2 mps 666 mmHg 98%
14:00 +2°C° 1.2 mm 2 mps 667 mmHg 98%
15:00 +1°C° 0.6 mm 2 mps 667 mmHg 98%
16:00 +1°C° 0.6 mm 2 mps 667 mmHg 98%
17:00 +1°C° 0.6 mm 2 mps 667 mmHg 98%
18:00 +1°C° 0.3 mm 2 mps 668 mmHg 98%
19:00 +1°C° 0.3 mm 2 mps 668 mmHg 98%
20:00 +1°C° 0.3 mm 2 mps 668 mmHg 98%
21:00 +2°C° 0.2 mm 1 mps 668 mmHg 98%
22:00 +1°C° 0.2 mm 1 mps 668 mmHg 98%
23:00 +1°C° 0.2 mm 1 mps 668 mmHg 98%
Show more

We Need Your Consent

Meteoprog and our Service Providers may store and access personal data such as cookies, device identifiers or other similar technologies on your device and process such data to personalise content and ads, as well as provide social media features and to analyse the traffic.

  • Store and/or access information on your device

    Cookies, device identifiers or other information can be stored or accessed on your device for the purposes indicated above.

  • Personalised ads and content, ad and content measurement, audience insights, and products development

    Ads and content can be personalised based on a profile. More data can be added to better personalise ads and content. Ad and content performance can be measured. Insights about the audience who saw the ads and content can be derived. Such data can be used to develop or improve user’s experience, systems and software.

By clicking ‘I Agree’ you will allow the use of indicated cookies, device identifiers, web beacons or other similar technologies. Your settings can be changed in the browser on your device.

For certain purposes, legitimate interests may be relied on, rather than consent. You can read more about this in our Privacy and Cookie Policy.